Showing default

COSMOS 1461, 14064

Orbit data source: Space-Track

COSMOS 1461, 14064 is a payload satellite owned by VMF (CIS) in LEO that was launched on Sat, 07 May 1983 UTC via a TSIKLON-2 launch vehicle from the Tyuratam Missile And Space Complex (TTMTR). Payload-class satellites include a variety of spacecraft equipped with specific instruments for various scientific and technological missions. These include communications satellites like Starlink; space stations such as the ISS; scientific satellites like the Hubble; Earth observation satellites from companies like Planet Labs, Umbra, and HawkEye 360; GPS; miniature CubeSats for education and research; and military/defense satellites.

Loading next visibility...
Identifier
14064, 1983-044A
Orbit
LEO
Last TLE update
17 hours ago
Origin
Manufacturer
TSSKB/KOMET
Mission
Defense Sigint
Bus & Motor
US-P, Unknown motor
Mass
3,300 kg wet, ~3,000 kg dry
Launch date (UTC)
1983-05-07 (42 years ago)
Launch vehicle
TSIKLON-2
Launch site
Tyuratam Missile And Space Complex (TTMTR)
Object type
Payload
Rocket body
Debris
Shape & HBR
Cyl, 10 m
Radar Cross Section
10.874 m², Large (>1 m²)

Expand to show TLE details & history

TLE from 17 hours ago
0 COSMOS 1461
1 14064U 83044A   25128.68345292  .00010076  00000-0  41310-3 0  9997
2 14064  64.9927 295.5130 0066356 322.9234  36.7320 15.22693591155252
Epoch: 2025-05-08T16:24Z
Definitive object data (Epoch: 2025-05-08T16:24:10.332Z)
Latitude
-0.00001°
Longitude
-177.28048°
Altitude
463.314 km
Speed
7.656 km/s
True Right ascension
19h 42m 03s
True Declination
0° 00' 00"
Sunlit
Object was in daylight at TLE epoch
Visualization TLE readout
Latitude
-18.5465°
Longitude
9.42939°
Altitude
528.096 km
Speed
7.585 km/s
Apparent Right ascension
06h 53m 53s
Apparent Declination
-30° 29' 01"
Sunlit
Object is in daylight
Visualization observer readout
Local Sidereal Time
17:12:04
Azimuth
286.572° WNW
Elevation
-67.269°
Doppler factor
1
Orbital elements
Apogee altitude
541.854 km
Perigee altitude
450.623 km
Semi-major axis
6,874.376 km
Eccentricity
0.0066356
Inclination
64.9927°
RAAN
295.513°
Arg. of periapsis
322.9234°
True anomaly
37.1898°
Mean anomaly
36.732°
Eccentric anomaly
36.9606°
Mean motion
3.80797 °/min
BSTAR
0.0004131
Orbital period
94.54 mins
Loading maneuver chart data...
Loading SW <> Apogee altitude chart data...

COSMOS 1461 Visibility forecast

Observer location: undefined°, undefined°

Span
Click to sort rows by Start time (UTC) header in descending order
Start Az.
Max El. time (UTC)
Max El. Az.
Max El.
End time (UTC)
End Az.
6 mins2025-05-09 13:02:49.089Z223.383° SW2025-05-09 13:05:49.089Z311.334° NW41.634°2025-05-09 13:08:49.089Z23.453° NE
6 mins2025-05-09 21:18:49.089Z344.664° N2025-05-09 21:21:49.089Z77.22° E37.291°2025-05-09 21:24:49.089Z130.49° SE
|